Simultaneous Nadir Overpasses (SNOs) Predictions

Prediction of SNOs between METOP-A and NOAA-19 Satellite Orbit:

Table of predicted SNOs for the next 14.0 days since TLE Epoch: 6/3/2016
Index Date (METOP-A) Time (METOP-A) Lat,Lon (METOP-A) SZA (METOP-A ) Date (NOAA-19) Time (NOAA-19) Lat,Lon (NOAA-19) SZA (NOAA-19 ) Distance(km) Time Diff (sec)
1 06/09/2016 21:02:28 76.39,-134.38 53.31 06/09/2016 21:01:18 76.43,-136.35 53.34 51.70 70
2 06/09/2016 21:53:15 -76.13, 32.03 126.96 06/09/2016 21:52:10 -76.14, 32.00 126.96 0.95 65
3 06/09/2016 22:43:56 76.10,-160.75 53.00 06/09/2016 22:43:13 76.12,-160.68 53.02 2.50 43
4 06/09/2016 23:34:37 -76.11, 6.63 126.99 06/09/2016 23:34:11 -76.09, 6.67 127.01 2.77 26
5 06/10/2016 00:25:18 76.08, 173.84 52.98 06/10/2016 00:25:15 76.11, 173.82 53.01 3.50 3
6
